Time,TemperatureF,DewpointF,PressureIn,WindDirection,WindDirectionDegrees,WindSpeedMPH,WindSpeedGustMPH,Humidity,HourlyPrecipIn,Conditions,Clouds,dailyrainin,SolarRadiationWatts/m^2,SoftwareType,DateUTC
2016-02-12 00:06:00,53.2,49.8,30.27,North,0,0.0,0.0,88,0.00,,,0.00,0.0,meteohub,2016-02-12 05:06:00,
2016-02-12 00:16:00,53.1,49.6,30.27,North,0,0.0,0.0,88,0.00,,,0.00,0.0,meteohub,2016-02-12 05:16:00,
2016-02-12 00:21:00,53.4,50.0,30.26,North,0,0.0,0.0,88,0.00,,,0.00,0.0,meteohub,2016-02-12 05:21:00,
2016-02-12 00:26:00,53.2,49.8,30.26,North,0,0.0,0.0,88,0.00,,,0.00,0.0,meteohub,2016-02-12 05:26:00,
2016-02-12 00:31:00,53.2,49.8,30.26,North,0,0.0,1.0,88,0.00,,,0.00,0.0,meteohub,2016-02-12 05:31:00,
2016-02-12 00:36:00,53.2,49.8,30.26,North,0,3.0,4.0,88,0.00,,,0.00,0.0,meteohub,2016-02-12 05:36:00,
2016-02-12 00:41:00,53.1,49.3,30.26,North,0,3.0,6.0,87,0.00,,,0.00,0.0,meteohub,2016-02-12 05:41:00,
2016-02-12 00:46:00,53.1,49.3,30.26,North,0,0.0,6.0,87,0.00,,,0.00,0.0,meteohub,2016-02-12 05:46:00,
2016-02-12 00:51:00,53.1,49.3,30.26,North,0,0.0,6.0,87,0.00,,,0.00,0.0,meteohub,2016-02-12 05:51:00,
2016-02-12 00:56:00,53.1,48.9,30.26,North,0,0.0,5.0,86,0.00,,,0.00,0.0,meteohub,2016-02-12 05:56:00,
2016-02-12 01:01:00,53.1,49.3,30.26,North,0,0.0,0.0,87,0.00,,,0.00,0.0,meteohub,2016-02-12 06:01:00,
2016-02-12 01:06:00,53.2,49.5,30.25,North,0,0.0,0.0,87,0.00,,,0.00,0.0,meteohub,2016-02-12 06:06:00,
2016-02-12 01:11:00,54.0,50.2,30.26,North,0,0.0,0.0,87,0.00,,,0.00,0.0,meteohub,2016-02-12 06:11:00,
2016-02-12 01:16:00,54.0,49.8,30.26,North,0,0.0,0.0,86,0.00,,,0.00,0.0,meteohub,2016-02-12 06:16:00,
2016-02-12 01:21:00,53.6,49.5,30.26,North,0,0.0,0.0,86,0.00,,,0.00,0.0,meteohub,2016-02-12 06:21:00,
2016-02-12 01:26:00,53.6,49.5,30.26,North,0,0.0,0.0,86,0.00,,,0.00,0.0,meteohub,2016-02-12 06:26:00,
2016-02-12 01:31:00,53.8,49.6,30.26,North,0,0.0,0.0,86,0.00,,,0.00,0.0,meteohub,2016-02-12 06:31:00,
2016-02-12 01:36:00,53.8,49.6,30.26,North,0,0.0,0.0,86,0.00,,,0.00,0.0,meteohub,2016-02-12 06:36:00,
2016-02-12 01:41:00,53.8,49.6,30.26,North,0,0.0,0.0,86,0.00,,,0.00,0.0,meteohub,2016-02-12 06:41:00,
2016-02-12 01:46:00,53.4,49.3,30.26,North,0,0.0,0.0,86,0.00,,,0.00,0.0,meteohub,2016-02-12 06:46:00,
2016-02-12 01:51:00,53.8,49.6,30.25,North,0,0.0,0.0,86,0.00,,,0.00,0.0,meteohub,2016-02-12 06:51:00,
2016-02-12 02:01:00,53.4,49.3,30.25,North,0,0.0,0.0,86,0.00,,,0.00,0.0,meteohub,2016-02-12 07:01:00,
2016-02-12 02:06:00,53.2,49.1,30.25,North,0,0.0,0.0,86,0.00,,,0.00,0.0,meteohub,2016-02-12 07:06:00,
2016-02-12 02:11:00,53.1,48.9,30.25,North,0,0.0,0.0,86,0.00,,,0.00,0.0,meteohub,2016-02-12 07:11:00,
2016-02-12 02:16:00,52.9,48.6,30.25,North,0,0.0,0.0,85,0.00,,,0.00,0.0,meteohub,2016-02-12 07:16:00,
2016-02-12 02:21:00,52.5,48.2,30.25,North,0,0.0,0.0,85,0.00,,,0.00,0.0,meteohub,2016-02-12 07:21:00,
2016-02-12 02:26:00,52.7,48.6,30.25,North,0,0.0,0.0,86,0.00,,,0.00,0.0,meteohub,2016-02-12 07:26:00,
2016-02-12 02:31:00,53.1,48.9,30.25,North,0,0.0,0.0,86,0.00,,,0.00,0.0,meteohub,2016-02-12 07:31:00,
2016-02-12 02:36:00,53.2,49.5,30.25,North,0,0.0,0.0,87,0.00,,,0.00,0.0,meteohub,2016-02-12 07:36:00,
2016-02-12 02:41:00,53.1,48.9,30.24,North,0,0.0,0.0,86,0.00,,,0.00,0.0,meteohub,2016-02-12 07:41:00,
2016-02-12 02:46:00,53.1,48.9,30.24,North,0,0.0,0.0,86,0.00,,,0.00,0.0,meteohub,2016-02-12 07:46:00,
2016-02-12 02:51:00,52.7,48.6,30.24,North,0,0.0,0.0,86,0.00,,,0.00,0.0,meteohub,2016-02-12 07:51:00,
2016-02-12 02:56:00,52.5,48.2,30.24,North,0,0.0,0.0,85,0.00,,,0.00,0.0,meteohub,2016-02-12 07:56:00,
2016-02-12 03:02:00,52.2,47.8,30.24,North,0,0.0,0.0,85,0.00,,,0.00,0.0,meteohub,2016-02-12 08:02:00,
2016-02-12 03:07:00,52.2,47.5,30.24,North,0,0.0,3.0,84,0.00,,,0.00,0.0,meteohub,2016-02-12 08:07:00,
2016-02-12 03:12:00,52.2,47.5,30.24,North,0,0.0,3.0,84,0.00,,,0.00,0.0,meteohub,2016-02-12 08:12:00,
2016-02-12 03:17:00,52.2,47.5,30.24,North,0,0.0,3.0,84,0.00,,,0.00,0.0,meteohub,2016-02-12 08:17:00,
2016-02-12 03:22:00,52.2,47.5,30.24,North,0,0.0,0.0,84,0.00,,,0.00,0.0,meteohub,2016-02-12 08:22:00,
2016-02-12 03:27:00,52.3,47.7,30.24,North,0,0.0,0.0,84,0.00,,,0.00,0.0,meteohub,2016-02-12 08:27:00,
2016-02-12 03:32:00,52.3,47.7,30.24,North,0,0.0,0.0,84,0.00,,,0.00,0.0,meteohub,2016-02-12 08:32:00,
2016-02-12 03:37:00,52.3,47.7,30.24,North,0,0.0,0.0,84,0.00,,,0.00,0.0,meteohub,2016-02-12 08:37:00,
2016-02-12 03:47:00,52.3,47.3,30.24,North,0,0.0,0.0,83,0.00,,,0.00,0.0,meteohub,2016-02-12 08:47:00,
2016-02-12 03:52:00,52.2,47.1,30.24,North,0,0.0,0.0,83,0.00,,,0.00,0.0,meteohub,2016-02-12 08:52:00,
2016-02-12 03:57:00,52.2,47.1,30.24,North,0,0.0,0.0,83,0.00,,,0.00,0.0,meteohub,2016-02-12 08:57:00,
2016-02-12 04:02:00,52.0,46.6,30.24,North,0,0.0,2.0,82,0.00,,,0.00,0.0,meteohub,2016-02-12 09:02:00,
2016-02-12 04:07:00,52.0,46.6,30.24,North,0,0.0,2.0,82,0.00,,,0.00,0.0,meteohub,2016-02-12 09:07:00,
2016-02-12 04:17:00,52.0,46.4,30.24,North,0,1.0,2.0,81,0.00,,,0.00,0.0,meteohub,2016-02-12 09:17:00,
2016-02-12 04:22:00,52.0,46.4,30.24,North,0,0.0,3.0,81,0.00,,,0.00,0.0,meteohub,2016-02-12 09:22:00,
2016-02-12 04:27:00,52.0,46.4,30.24,North,0,0.0,3.0,81,0.00,,,0.00,0.0,meteohub,2016-02-12 09:27:00,
2016-02-12 04:32:00,52.2,46.6,30.24,North,0,0.0,3.0,81,0.00,,,0.00,0.0,meteohub,2016-02-12 09:32:00,
2016-02-12 04:37:00,52.3,46.8,30.24,North,0,0.0,0.0,81,0.00,,,0.00,0.0,meteohub,2016-02-12 09:37:00,
2016-02-12 04:42:00,52.5,46.9,30.24,North,0,0.0,0.0,81,0.00,,,0.00,0.0,meteohub,2016-02-12 09:42:00,
2016-02-12 04:47:00,53.1,47.7,30.25,North,0,0.0,0.0,82,0.00,,,0.00,0.0,meteohub,2016-02-12 09:47:00,
2016-02-12 04:52:00,53.1,47.7,30.25,North,0,0.0,0.0,82,0.00,,,0.00,0.0,meteohub,2016-02-12 09:52:00,
2016-02-12 04:57:00,52.9,47.3,30.25,North,0,0.0,0.0,81,0.00,,,0.00,0.0,meteohub,2016-02-12 09:57:00,
2016-02-12 05:02:00,52.7,47.1,30.25,North,0,0.0,0.0,81,0.00,,,0.00,0.0,meteohub,2016-02-12 10:02:00,
2016-02-12 05:07:00,52.9,47.5,30.25,North,0,0.0,0.0,82,0.00,,,0.00,0.0,meteohub,2016-02-12 10:07:00,
2016-02-12 05:12:00,52.9,47.8,30.25,North,0,0.0,0.0,83,0.00,,,0.00,0.0,meteohub,2016-02-12 10:12:00,
2016-02-12 05:17:00,52.7,47.7,30.25,North,0,0.0,0.0,83,0.00,,,0.00,0.0,meteohub,2016-02-12 10:17:00,
2016-02-12 05:22:00,52.3,47.3,30.26,North,0,0.0,0.0,83,0.00,,,0.00,0.0,meteohub,2016-02-12 10:22:00,
2016-02-12 05:27:00,52.5,47.8,30.26,North,0,0.0,0.0,84,0.00,,,0.00,0.0,meteohub,2016-02-12 10:27:00,
2016-02-12 05:32:00,52.9,48.6,30.25,North,0,0.0,0.0,85,0.00,,,0.00,0.0,meteohub,2016-02-12 10:32:00,
2016-02-12 05:37:00,52.3,47.7,30.26,North,0,0.0,0.0,84,0.00,,,0.00,0.0,meteohub,2016-02-12 10:37:00,
2016-02-12 05:46:00,52.2,47.5,30.26,North,0,0.0,0.0,84,0.00,,,0.00,0.0,meteohub,2016-02-12 10:46:00,
2016-02-12 05:51:00,51.6,47.3,30.26,North,0,0.0,0.0,85,0.00,,,0.00,0.0,meteohub,2016-02-12 10:51:00,
2016-02-12 05:56:00,51.6,47.3,30.26,North,0,0.0,0.0,85,0.00,,,0.00,0.0,meteohub,2016-02-12 10:56:00,
2016-02-12 06:01:00,51.3,46.6,30.27,North,0,0.0,0.0,84,0.00,,,0.00,0.0,meteohub,2016-02-12 11:01:00,
2016-02-12 06:07:00,51.3,46.6,30.27,North,0,0.0,0.0,84,0.00,,,0.00,0.0,meteohub,2016-02-12 11:07:00,
2016-02-12 06:12:00,51.1,46.4,30.27,North,0,0.0,0.0,84,0.00,,,0.00,0.0,meteohub,2016-02-12 11:12:00,
2016-02-12 06:17:00,50.9,46.2,30.27,North,0,0.0,0.0,84,0.00,,,0.00,0.0,meteohub,2016-02-12 11:17:00,
2016-02-12 06:21:00,50.9,46.2,30.27,North,0,0.0,0.0,84,0.00,,,0.00,0.0,meteohub,2016-02-12 11:21:00,
2016-02-12 06:26:00,50.9,46.2,30.27,North,0,0.0,0.0,84,0.00,,,0.00,0.0,meteohub,2016-02-12 11:26:00,
2016-02-12 06:31:00,50.9,46.2,30.27,North,0,0.0,0.0,84,0.00,,,0.00,0.0,meteohub,2016-02-12 11:31:00,
2016-02-12 06:42:00,50.7,46.0,30.27,North,0,0.0,0.0,84,0.00,,,0.00,0.0,meteohub,2016-02-12 11:42:00,
2016-02-12 06:47:00,50.7,46.0,30.27,North,0,0.0,0.0,84,0.00,,,0.00,0.0,meteohub,2016-02-12 11:47:00,
2016-02-12 06:52:00,50.7,46.0,30.27,North,0,0.0,0.0,84,0.00,,,0.00,0.0,meteohub,2016-02-12 11:52:00,
2016-02-12 06:57:00,50.9,46.2,30.28,North,0,0.0,0.0,84,0.00,,,0.00,0.0,meteohub,2016-02-12 11:57:00,
2016-02-12 07:02:00,50.9,46.2,30.28,North,0,0.0,4.0,84,0.00,,,0.00,7.0,meteohub,2016-02-12 12:02:00,
2016-02-12 07:06:00,51.1,46.8,30.28,North,0,0.0,4.0,85,0.00,,,0.00,9.0,meteohub,2016-02-12 12:06:00,
2016-02-12 07:11:00,51.1,46.8,30.28,North,0,0.0,4.0,85,0.00,,,0.00,12.0,meteohub,2016-02-12 12:11:00,
2016-02-12 07:17:00,51.1,46.4,30.28,North,0,0.0,1.0,84,0.00,,,0.00,16.0,meteohub,2016-02-12 12:17:00,
2016-02-12 07:27:00,51.3,46.6,30.28,North,0,0.0,0.0,84,0.00,,,0.00,37.0,meteohub,2016-02-12 12:27:00,
2016-02-12 07:32:00,51.6,46.9,30.29,North,0,0.0,0.0,84,0.00,,,0.00,51.0,meteohub,2016-02-12 12:32:00,
2016-02-12 07:37:00,52.2,47.1,30.29,North,0,0.0,0.0,83,0.00,,,0.00,63.0,meteohub,2016-02-12 12:37:00,
2016-02-12 07:42:00,52.9,47.5,30.30,North,0,0.0,0.0,82,0.00,,,0.00,83.0,meteohub,2016-02-12 12:42:00,
2016-02-12 07:47:00,53.6,47.8,30.30,North,0,0.0,2.0,81,0.00,,,0.00,100.0,meteohub,2016-02-12 12:47:00,
2016-02-12 07:52:00,54.9,48.7,30.29,North,0,0.0,3.0,80,0.00,,,0.00,120.0,meteohub,2016-02-12 12:52:00,
2016-02-12 07:57:00,55.6,48.6,30.30,North,0,0.0,3.0,77,0.00,,,0.00,141.0,meteohub,2016-02-12 12:57:00,
2016-02-12 08:02:00,56.5,48.7,30.30,North,0,0.0,3.0,75,0.00,,,0.00,162.0,meteohub,2016-02-12 13:02:00,
2016-02-12 08:07:00,57.4,49.1,30.30,North,0,0.0,2.0,74,0.00,,,0.00,183.0,meteohub,2016-02-12 13:07:00,
2016-02-12 08:12:00,58.3,49.3,30.30,North,0,0.0,1.0,72,0.00,,,0.00,199.0,meteohub,2016-02-12 13:12:00,
2016-02-12 08:17:00,59.0,49.6,30.30,North,0,0.0,1.0,71,0.00,,,0.00,218.0,meteohub,2016-02-12 13:17:00,
2016-02-12 08:21:00,59.7,49.5,30.30,North,0,0.0,1.0,69,0.00,,,0.00,236.0,meteohub,2016-02-12 13:21:00,
2016-02-12 08:27:00,60.6,49.6,30.30,North,0,0.0,1.0,67,0.00,,,0.00,253.0,meteohub,2016-02-12 13:27:00,
2016-02-12 08:32:00,61.3,49.5,30.30,North,0,0.0,3.0,65,0.00,,,0.00,271.0,meteohub,2016-02-12 13:32:00,
2016-02-12 08:37:00,62.4,50.0,30.30,North,0,0.0,3.0,64,0.00,,,0.00,290.0,meteohub,2016-02-12 13:37:00,
2016-02-12 08:42:00,63.3,50.5,30.30,North,0,0.0,2.0,63,0.00,,,0.00,306.0,meteohub,2016-02-12 13:42:00,
2016-02-12 08:47:00,63.9,50.2,30.30,North,0,4.0,4.0,61,0.00,,,0.00,322.0,meteohub,2016-02-12 13:47:00,
2016-02-12 08:52:00,64.6,49.5,30.30,North,0,0.0,5.0,58,0.00,,,0.00,339.0,meteohub,2016-02-12 13:52:00,
2016-02-12 08:56:00,65.1,49.1,30.30,North,0,2.0,5.0,56,0.00,,,0.00,357.0,meteohub,2016-02-12 13:56:00,
2016-02-12 09:06:00,65.8,48.7,30.30,North,0,4.0,6.0,54,0.00,,,0.00,385.0,meteohub,2016-02-12 14:06:00,
2016-02-12 09:11:00,65.8,48.2,30.30,North,0,5.0,7.0,53,0.00,,,0.00,408.0,meteohub,2016-02-12 14:11:00,
2016-02-12 09:16:00,66.2,48.6,30.30,North,0,1.0,7.0,53,0.00,,,0.00,424.0,meteohub,2016-02-12 14:16:00,
2016-02-12 09:21:00,67.1,49.8,30.30,North,0,6.0,7.0,54,0.00,,,0.00,438.0,meteohub,2016-02-12 14:21:00,
2016-02-12 09:27:00,67.6,49.8,30.30,North,0,5.0,6.0,53,0.00,,,0.00,454.0,meteohub,2016-02-12 14:27:00,
2016-02-12 09:32:00,68.2,50.4,30.30,North,0,4.0,6.0,53,0.00,,,0.00,469.0,meteohub,2016-02-12 14:32:00,
2016-02-12 09:37:00,68.9,51.1,30.30,North,0,0.0,6.0,53,0.00,,,0.00,485.0,meteohub,2016-02-12 14:37:00,
2016-02-12 09:42:00,69.8,52.0,30.31,North,0,2.0,6.0,53,0.00,,,0.00,501.0,meteohub,2016-02-12 14:42:00,
2016-02-12 09:47:00,70.3,52.9,30.30,North,0,3.0,5.0,54,0.00,,,0.00,517.0,meteohub,2016-02-12 14:47:00,